QFA743 YSSY-YPAD

Flight info

Callsign QFA743
Flight time 1h 42m
Altitude 36000
Route KADOM H44 MAXEM Q60 KAKLU
Aircraft B738/M-SDE2E3FGHIRWXY/LB1

Departure

Time 2026-05-05 08:29
Airport Sydney Kingsford Smith International Airport (YSSY)

Arrival

Time 2026-05-05 10:11
Airport Adelaide International Airport (YPAD)
Time Latitude Longitude Altitude Speed Heading
2026-05-05 07:48 -33.93154 151.17913 29 ft 0 kts 191°
2026-05-05 08:21 -33.93151 151.17913 15 ft 3 kts 191°
2026-05-05 08:21 -33.93126 151.17917 29 ft 4 kts 167°
2026-05-05 08:21 -33.93106 151.17911 29 ft 4 kts 185°
2026-05-05 08:21 -33.93086 151.17923 29 ft 4 kts 246°
2026-05-05 08:22 -33.93083 151.17947 29 ft 1 kts 280°
2026-05-05 08:25 -33.93082 151.17943 29 ft 3 kts 280°
2026-05-05 08:25 -33.93081 151.17933 29 ft 6 kts 280°
2026-05-05 08:26 -33.93078 151.17910 29 ft 8 kts 279°
2026-05-05 08:26 -33.93064 151.17812 29 ft 13 kts 280°
2026-05-05 08:26 -33.93034 151.17707 29 ft 13 kts 297°
2026-05-05 08:27 -33.93007 151.17603 29 ft 14 kts 281°
2026-05-05 08:27 -33.92986 151.17477 29 ft 18 kts 281°
2026-05-05 08:27 -33.92959 151.17314 30 ft 22 kts 280°
2026-05-05 08:27 -33.92985 151.17184 30 ft 14 kts 216°
2026-05-05 08:28 -33.93084 151.17196 30 ft 22 kts 168°
2026-05-05 08:28 -33.93461 151.17294 30 ft 89 kts 167°
2026-05-05 08:28 -33.94263 151.17502 29 ft 144 kts 167°
2026-05-05 08:28 -33.95363 151.17788 264 ft 169 kts 166°
2026-05-05 08:29 -33.96522 151.18102 966 ft 171 kts 171°
2026-05-05 08:29 -33.97725 151.18079 1468 ft 184 kts 187°
2026-05-05 08:29 -33.99076 151.17909 1699 ft 205 kts 186°
2026-05-05 08:30 -34.02115 151.17567 2217 ft 236 kts 185°
2026-05-05 08:30 -34.03785 151.17793 2671 ft 248 kts 165°
2026-05-05 08:30 -34.05453 151.18392 3355 ft 251 kts 165°
2026-05-05 08:30 -34.07140 151.18975 4059 ft 253 kts 166°
2026-05-05 08:31 -34.08843 151.19550 4716 ft 257 kts 166°
2026-05-05 08:31 -34.10579 151.20132 5348 ft 261 kts 166°
2026-05-05 08:31 -34.12348 151.20714 5946 ft 267 kts 170°
2026-05-05 08:31 -34.14183 151.20582 6511 ft 268 kts 204°
2026-05-05 08:32 -34.15662 151.19260 7152 ft 267 kts 233°
2026-05-05 08:32 -34.16524 151.17227 7458 ft 285 kts 256°
2026-05-05 08:32 -34.16702 151.14768 7644 ft 307 kts 274°
2026-05-05 08:32 -34.16287 151.12158 7896 ft 325 kts 284°
2026-05-05 08:33 -34.15623 151.09514 8400 ft 333 kts 287°
2026-05-05 08:33 -34.14894 151.06854 9065 ft 335 kts 287°
2026-05-05 08:33 -34.14156 151.04168 9761 ft 338 kts 287°
2026-05-05 08:33 -34.13426 151.01454 10421 ft 342 kts 287°
2026-05-05 08:34 -34.12704 150.98707 11065 ft 345 kts 286°
2026-05-05 08:34 -34.11986 150.95930 11699 ft 349 kts 285°
2026-05-05 08:34 -34.11269 150.93116 12328 ft 353 kts 285°
2026-05-05 08:34 -34.10551 150.90280 12988 ft 356 kts 285°
2026-05-05 08:35 -34.09826 150.87404 13641 ft 360 kts 285°
2026-05-05 08:35 -34.09096 150.84502 14266 ft 364 kts 285°
2026-05-05 08:35 -34.08370 150.81611 14889 ft 366 kts 285°
2026-05-05 08:35 -34.07628 150.78662 15574 ft 368 kts 285°
2026-05-05 08:36 -34.06874 150.75665 16253 ft 370 kts 285°
2026-05-05 08:36 -34.06132 150.72720 16888 ft 373 kts 285°
2026-05-05 08:36 -34.05375 150.69717 17544 ft 376 kts 285°
2026-05-05 08:36 -34.04611 150.66690 18172 ft 379 kts 285°
2026-05-05 08:37 -34.03840 150.63637 18751 ft 382 kts 286°
2026-05-05 08:37 -34.03061 150.60561 19301 ft 385 kts 286°
2026-05-05 08:37 -34.02279 150.57470 19860 ft 387 kts 286°
2026-05-05 08:37 -34.01489 150.54357 20397 ft 390 kts 286°
2026-05-05 08:38 -34.00693 150.51221 20920 ft 393 kts 286°
2026-05-05 08:38 -33.99892 150.48067 21426 ft 396 kts 286°
2026-05-05 08:38 -33.99082 150.44884 21924 ft 399 kts 287°
2026-05-05 08:38 -33.98263 150.41670 22415 ft 402 kts 287°
2026-05-05 08:39 -33.97442 150.38451 22914 ft 404 kts 287°
2026-05-05 08:39 -33.96611 150.35198 23411 ft 407 kts 287°
2026-05-05 08:39 -33.95774 150.31924 23861 ft 410 kts 287°
2026-05-05 08:39 -33.94932 150.28637 24250 ft 412 kts 287°
2026-05-05 08:40 -33.94083 150.25324 24692 ft 413 kts 287°
2026-05-05 08:40 -33.93235 150.22021 25126 ft 414 kts 287°
2026-05-05 08:40 -33.92383 150.18704 25541 ft 415 kts 287°
2026-05-05 08:40 -33.91527 150.15377 25944 ft 417 kts 287°
2026-05-05 08:41 -33.90666 150.12037 26309 ft 419 kts 287°
2026-05-05 08:41 -33.89801 150.08683 26676 ft 420 kts 288°
2026-05-05 08:41 -33.88932 150.05317 27050 ft 422 kts 287°
2026-05-05 08:41 -33.88060 150.01944 27428 ft 423 kts 288°
2026-05-05 08:42 -33.87186 149.98567 27782 ft 424 kts 288°
2026-05-05 08:42 -33.86304 149.95164 28132 ft 426 kts 288°
2026-05-05 08:42 -33.85420 149.91757 28465 ft 427 kts 288°
2026-05-05 08:42 -33.84532 149.88342 28781 ft 429 kts 288°
2026-05-05 08:43 -33.83640 149.84913 29107 ft 431 kts 288°
2026-05-05 08:43 -33.82753 149.81509 29421 ft 432 kts 288°
2026-05-05 08:43 -33.81853 149.78056 29736 ft 433 kts 288°
2026-05-05 08:43 -33.80942 149.74566 30177 ft 432 kts 288°
2026-05-05 08:44 -33.80058 149.71182 30622 ft 428 kts 288°
2026-05-05 08:44 -33.79167 149.67780 31066 ft 425 kts 288°
2026-05-05 08:44 -33.78283 149.64403 31483 ft 422 kts 288°
2026-05-05 08:44 -33.77639 149.60977 31854 ft 421 kts 280°
2026-05-05 08:45 -33.77367 149.57475 32230 ft 421 kts 274°
2026-05-05 08:45 -33.77499 149.53949 32603 ft 422 kts 268°
2026-05-05 08:45 -33.77790 149.50456 32964 ft 420 kts 267°
2026-05-05 08:45 -33.78096 149.46969 33328 ft 418 kts 268°
2026-05-05 08:46 -33.78401 149.43496 33678 ft 417 kts 268°
2026-05-05 08:46 -33.78697 149.40037 34037 ft 415 kts 268°
2026-05-05 08:46 -33.78983 149.36600 34368 ft 413 kts 268°
2026-05-05 08:46 -33.79263 149.33168 34635 ft 412 kts 268°
2026-05-05 08:47 -33.79539 149.29736 34849 ft 412 kts 268°
2026-05-05 08:47 -33.79812 149.26300 35060 ft 413 kts 268°
2026-05-05 08:47 -33.80083 149.22877 35305 ft 412 kts 268°
2026-05-05 08:47 -33.80353 149.19452 35560 ft 411 kts 268°
2026-05-05 08:48 -33.80621 149.16035 35806 ft 410 kts 268°
2026-05-05 08:48 -33.80889 149.12622 36029 ft 410 kts 268°
2026-05-05 08:48 -33.81155 149.09212 36231 ft 410 kts 268°
2026-05-05 08:48 -33.81420 149.05801 36436 ft 410 kts 268°
2026-05-05 08:49 -33.81685 149.02392 36653 ft 409 kts 268°
2026-05-05 08:49 -33.81948 148.98987 36880 ft 409 kts 268°
2026-05-05 08:49 -33.82210 148.95586 37081 ft 408 kts 268°
2026-05-05 08:49 -33.82470 148.92190 37270 ft 408 kts 268°
2026-05-05 08:50 -33.82730 148.88787 37450 ft 409 kts 268°
2026-05-05 08:50 -33.82989 148.85383 37636 ft 409 kts 268°
2026-05-05 08:50 -33.83161 148.83128 37775 ft 408 kts 268°
2026-05-05 08:50 -33.83418 148.79729 37985 ft 408 kts 268°
2026-05-05 08:51 -33.83674 148.76342 38154 ft 407 kts 268°
2026-05-05 08:51 -33.84185 148.69523 38234 ft 411 kts 268°
2026-05-05 08:52 -33.84880 148.62714 38242 ft 410 kts 263°
2026-05-05 08:52 -33.86009 148.56005 38237 ft 408 kts 262°
2026-05-05 08:53 -33.87145 148.49336 38243 ft 406 kts 262°
2026-05-05 08:53 -33.88259 148.42692 38241 ft 405 kts 263°
2026-05-05 08:54 -33.89351 148.36098 38246 ft 404 kts 263°
2026-05-05 08:54 -33.90444 148.29452 38251 ft 406 kts 263°
2026-05-05 08:55 -33.91541 148.22756 38244 ft 408 kts 263°
2026-05-05 08:55 -33.92637 148.16040 38249 ft 410 kts 262°
2026-05-05 08:56 -33.93737 148.09281 38246 ft 412 kts 262°
2026-05-05 08:56 -33.94839 148.02492 38246 ft 414 kts 262°
2026-05-05 08:57 -33.95941 147.95668 38246 ft 416 kts 262°
2026-05-05 08:57 -33.97043 147.88828 38245 ft 417 kts 262°
2026-05-05 08:58 -33.98144 147.81963 38243 ft 417 kts 262°
2026-05-05 08:58 -33.99240 147.75106 38242 ft 417 kts 262°
2026-05-05 08:59 -34.00331 147.68252 38243 ft 416 kts 262°
2026-05-05 08:59 -34.01416 147.61416 38241 ft 415 kts 262°
2026-05-05 09:00 -34.02495 147.54587 38242 ft 414 kts 262°
2026-05-05 09:00 -34.03568 147.47769 38242 ft 413 kts 262°
2026-05-05 09:01 -34.04636 147.40960 38245 ft 413 kts 262°
2026-05-05 09:01 -34.05697 147.34166 38248 ft 412 kts 262°
2026-05-05 09:02 -34.06755 147.27367 38251 ft 412 kts 262°
2026-05-05 09:02 -34.07810 147.20564 38247 ft 413 kts 262°
2026-05-05 09:03 -34.08855 147.13799 38255 ft 413 kts 262°
2026-05-05 09:03 -34.09903 147.06984 38257 ft 414 kts 262°
2026-05-05 09:04 -34.10952 147.00143 38254 ft 415 kts 262°
2026-05-05 09:04 -34.11999 146.93284 38258 ft 416 kts 262°
2026-05-05 09:05 -34.13045 146.86408 38261 ft 417 kts 262°
2026-05-05 09:05 -34.14088 146.79523 38254 ft 418 kts 262°
2026-05-05 09:06 -34.15130 146.72619 38252 ft 418 kts 262°
2026-05-05 09:06 -34.16169 146.65709 38258 ft 419 kts 262°
2026-05-05 09:07 -34.17205 146.58789 38249 ft 419 kts 262°
2026-05-05 09:07 -34.18238 146.51865 38255 ft 419 kts 262°
2026-05-05 09:08 -34.19266 146.44940 38239 ft 419 kts 262°
2026-05-05 09:08 -34.20290 146.38023 38246 ft 419 kts 262°
2026-05-05 09:09 -34.21303 146.31147 38251 ft 418 kts 262°
2026-05-05 09:09 -34.22317 146.24233 38248 ft 418 kts 262°
2026-05-05 09:10 -34.23328 146.17312 38252 ft 418 kts 262°
2026-05-05 09:10 -34.24337 146.10386 38248 ft 418 kts 262°
2026-05-05 09:11 -34.25315 146.03471 38252 ft 417 kts 263°
2026-05-05 09:11 -34.26175 145.96537 38254 ft 417 kts 263°
2026-05-05 09:12 -34.27012 145.89595 38248 ft 417 kts 263°
2026-05-05 09:12 -34.27856 145.82651 38257 ft 417 kts 263°
2026-05-05 09:13 -34.28703 145.75713 38254 ft 418 kts 263°
2026-05-05 09:13 -34.29550 145.68762 38253 ft 418 kts 263°
2026-05-05 09:14 -34.30388 145.61853 38251 ft 418 kts 263°
2026-05-05 09:14 -34.31228 145.54901 38255 ft 418 kts 263°
2026-05-05 09:15 -34.32066 145.47931 38256 ft 419 kts 263°
2026-05-05 09:15 -34.32899 145.40959 38250 ft 419 kts 263°
2026-05-05 09:16 -34.33729 145.33988 38256 ft 419 kts 263°
2026-05-05 09:16 -34.34555 145.27004 38250 ft 419 kts 263°
2026-05-05 09:17 -34.35379 145.20014 38257 ft 420 kts 263°
2026-05-05 09:17 -34.36199 145.13019 38252 ft 420 kts 263°
2026-05-05 09:18 -34.37015 145.06020 38257 ft 420 kts 263°
2026-05-05 09:18 -34.37827 144.99018 38259 ft 420 kts 263°
2026-05-05 09:19 -34.38637 144.92004 38257 ft 420 kts 263°
2026-05-05 09:19 -34.39441 144.85000 38258 ft 420 kts 263°
2026-05-05 09:20 -34.40243 144.77980 38253 ft 420 kts 263°
2026-05-05 09:20 -34.41040 144.70970 38258 ft 420 kts 263°
2026-05-05 09:21 -34.41833 144.63953 38260 ft 420 kts 263°
2026-05-05 09:21 -34.42622 144.56941 38268 ft 420 kts 263°
2026-05-05 09:22 -34.43407 144.49923 38266 ft 420 kts 263°
2026-05-05 09:22 -34.44188 144.42905 38264 ft 420 kts 263°
2026-05-05 09:23 -34.44959 144.35935 38264 ft 420 kts 263°
2026-05-05 09:23 -34.45737 144.28875 38265 ft 420 kts 263°
2026-05-05 09:24 -34.46505 144.21857 38264 ft 420 kts 263°
2026-05-05 09:24 -34.47270 144.14836 38265 ft 420 kts 263°
2026-05-05 09:25 -34.48025 144.07864 38265 ft 420 kts 263°
2026-05-05 09:25 -34.48781 144.00848 38265 ft 420 kts 263°
2026-05-05 09:26 -34.49533 143.93829 38267 ft 420 kts 263°
2026-05-05 09:26 -34.50281 143.86806 38267 ft 420 kts 263°
2026-05-05 09:27 -34.51026 143.79781 38268 ft 420 kts 264°
2026-05-05 09:27 -34.51766 143.72759 38270 ft 420 kts 264°
2026-05-05 09:28 -34.52502 143.65735 38270 ft 420 kts 264°
2026-05-05 09:28 -34.53233 143.58712 38268 ft 420 kts 264°
2026-05-05 09:29 -34.53961 143.51689 38268 ft 420 kts 264°
2026-05-05 09:29 -34.54684 143.44673 38269 ft 420 kts 264°
2026-05-05 09:30 -34.55403 143.37647 38269 ft 419 kts 264°
2026-05-05 09:30 -34.56118 143.30630 38275 ft 419 kts 264°
2026-05-05 09:31 -34.56829 143.23605 38274 ft 419 kts 264°
2026-05-05 09:31 -34.57536 143.16580 38270 ft 419 kts 264°
2026-05-05 09:32 -34.58239 143.09559 38269 ft 419 kts 264°
2026-05-05 09:32 -34.58937 143.02534 38275 ft 419 kts 264°
2026-05-05 09:33 -34.59632 142.95515 38275 ft 419 kts 264°
2026-05-05 09:33 -34.60322 142.88488 38270 ft 419 kts 264°
2026-05-05 09:34 -34.61009 142.81461 38273 ft 419 kts 264°
2026-05-05 09:34 -34.61687 142.74479 38275 ft 419 kts 264°
2026-05-05 09:35 -34.62365 142.67458 38276 ft 419 kts 264°
2026-05-05 09:35 -34.63376 142.56909 38271 ft 419 kts 264°
2026-05-05 09:36 -34.63918 142.49858 38274 ft 419 kts 266°
2026-05-05 09:36 -34.64284 142.42794 38274 ft 419 kts 267°
2026-05-05 09:37 -34.64646 142.35738 38274 ft 419 kts 267°
2026-05-05 09:37 -34.65026 142.28668 38276 ft 419 kts 266°
2026-05-05 09:38 -34.65414 142.21605 38276 ft 419 kts 266°
2026-05-05 09:38 -34.65801 142.14538 38276 ft 420 kts 266°
2026-05-05 09:39 -34.66184 142.07468 38276 ft 420 kts 266°
2026-05-05 09:39 -34.66499 142.01586 38276 ft 420 kts 266°
2026-05-05 09:40 -34.66874 141.94514 38277 ft 420 kts 267°
2026-05-05 09:40 -34.67244 141.87445 38279 ft 419 kts 267°
2026-05-05 09:41 -34.67612 141.80364 38277 ft 419 kts 267°
2026-05-05 09:41 -34.67974 141.73302 38278 ft 419 kts 267°
2026-05-05 09:42 -34.68332 141.66224 38279 ft 419 kts 267°
2026-05-05 09:42 -34.68687 141.59148 38275 ft 419 kts 267°
2026-05-05 09:43 -34.69037 141.52082 38284 ft 419 kts 267°
2026-05-05 09:43 -34.69383 141.45012 38282 ft 419 kts 267°
2026-05-05 09:44 -34.69725 141.37942 38274 ft 419 kts 267°
2026-05-05 09:44 -34.70063 141.30870 38281 ft 419 kts 267°
2026-05-05 09:45 -34.70396 141.23801 38279 ft 419 kts 267°
2026-05-05 09:45 -34.70726 141.16735 38275 ft 418 kts 267°
2026-05-05 09:46 -34.71048 141.09745 38264 ft 410 kts 267°
2026-05-05 09:46 -34.71361 141.02858 38274 ft 406 kts 267°
2026-05-05 09:47 -34.71516 140.99412 37850 ft 411 kts 267°
2026-05-05 09:47 -34.71670 140.95969 37374 ft 408 kts 267°
2026-05-05 09:47 -34.71823 140.92533 36896 ft 405 kts 267°
2026-05-05 09:47 -34.71974 140.89124 36340 ft 405 kts 267°
2026-05-05 09:48 -34.72124 140.85711 35764 ft 404 kts 267°
2026-05-05 09:48 -34.72271 140.82348 35192 ft 403 kts 267°
2026-05-05 09:48 -34.72418 140.78936 34611 ft 406 kts 267°
2026-05-05 09:48 -34.72565 140.75524 33983 ft 413 kts 267°
2026-05-05 09:49 -34.72718 140.71964 33271 ft 418 kts 267°
2026-05-05 09:49 -34.72868 140.68441 32597 ft 417 kts 267°
2026-05-05 09:49 -34.73016 140.64921 31930 ft 418 kts 267°
2026-05-05 09:49 -34.73165 140.61389 31256 ft 418 kts 268°
2026-05-05 09:50 -34.73312 140.57862 30573 ft 418 kts 268°
2026-05-05 09:50 -34.73458 140.54326 29786 ft 420 kts 268°
2026-05-05 09:50 -34.73606 140.50751 29004 ft 430 kts 268°
2026-05-05 09:50 -34.73757 140.47095 28362 ft 430 kts 268°
2026-05-05 09:51 -34.73907 140.43489 27766 ft 425 kts 268°
2026-05-05 09:51 -34.74054 140.39921 27216 ft 419 kts 268°
2026-05-05 09:51 -34.74198 140.36400 26657 ft 416 kts 268°
2026-05-05 09:51 -34.74340 140.32910 26114 ft 411 kts 268°
2026-05-05 09:52 -34.74480 140.29444 25583 ft 409 kts 268°
2026-05-05 09:52 -34.74618 140.25982 25051 ft 412 kts 268°
2026-05-05 09:52 -34.74756 140.22498 24510 ft 411 kts 268°
2026-05-05 09:52 -34.74893 140.19034 23964 ft 408 kts 268°
2026-05-05 09:53 -34.75027 140.15606 23325 ft 405 kts 268°
2026-05-05 09:53 -34.75159 140.12201 22742 ft 401 kts 268°
2026-05-05 09:53 -34.75289 140.08830 22207 ft 396 kts 268°
2026-05-05 09:53 -34.75417 140.05498 21661 ft 393 kts 268°
2026-05-05 09:54 -34.75542 140.02193 21132 ft 390 kts 268°
2026-05-05 09:54 -34.75666 139.98912 20613 ft 388 kts 268°
2026-05-05 09:54 -34.75789 139.95640 20095 ft 386 kts 268°
2026-05-05 09:54 -34.75908 139.92418 19588 ft 387 kts 268°
2026-05-05 09:55 -34.76029 139.89143 19068 ft 388 kts 268°
2026-05-05 09:55 -34.76150 139.85839 18508 ft 386 kts 268°
2026-05-05 09:55 -34.76266 139.82651 17934 ft 383 kts 268°
2026-05-05 09:55 -34.76384 139.79412 17382 ft 379 kts 268°
2026-05-05 09:56 -34.76498 139.76224 16852 ft 376 kts 268°
2026-05-05 09:56 -34.76610 139.73069 16340 ft 372 kts 268°
2026-05-05 09:56 -34.76721 139.69941 15832 ft 369 kts 268°
2026-05-05 09:56 -34.76830 139.66830 15332 ft 366 kts 267°
2026-05-05 09:57 -34.76937 139.63753 14836 ft 363 kts 267°
2026-05-05 09:57 -34.77043 139.60691 14346 ft 361 kts 267°
2026-05-05 09:57 -34.77148 139.57646 13805 ft 359 kts 267°
2026-05-05 09:57 -34.77251 139.54623 13273 ft 357 kts 267°
2026-05-05 09:58 -34.77353 139.51618 12763 ft 354 kts 267°
2026-05-05 09:58 -34.77453 139.48644 12272 ft 351 kts 267°
2026-05-05 09:58 -34.77552 139.45688 11784 ft 348 kts 267°
2026-05-05 09:58 -34.77649 139.42764 11304 ft 345 kts 267°
2026-05-05 09:59 -34.77739 139.39853 10956 ft 339 kts 268°
2026-05-05 09:59 -34.77807 139.37021 10635 ft 333 kts 268°
2026-05-05 09:59 -34.77867 139.34250 10421 ft 323 kts 268°
2026-05-05 09:59 -34.77923 139.31563 10280 ft 312 kts 268°
2026-05-05 10:00 -34.77979 139.28968 10137 ft 302 kts 268°
2026-05-05 10:00 -34.78032 139.26452 9999 ft 293 kts 268°
2026-05-05 10:00 -34.78085 139.24018 9731 ft 288 kts 268°
2026-05-05 10:00 -34.78137 139.21591 9402 ft 286 kts 268°
2026-05-05 10:01 -34.78189 139.19174 9073 ft 284 kts 268°
2026-05-05 10:01 -34.78240 139.16779 8759 ft 282 kts 268°
2026-05-05 10:01 -34.78290 139.14399 8449 ft 280 kts 268°
2026-05-05 10:01 -34.78340 139.12036 8132 ft 278 kts 268°
2026-05-05 10:02 -34.78388 139.09694 7844 ft 277 kts 268°
2026-05-05 10:02 -34.78435 139.07361 7539 ft 275 kts 268°
2026-05-05 10:02 -34.78484 139.05042 7235 ft 273 kts 268°
2026-05-05 10:02 -34.78533 139.02734 6946 ft 272 kts 268°
2026-05-05 10:03 -34.78582 139.00437 6644 ft 271 kts 268°
2026-05-05 10:03 -34.78630 138.98151 6322 ft 270 kts 268°
2026-05-05 10:03 -34.78679 138.95868 6013 ft 269 kts 268°
2026-05-05 10:03 -34.78706 138.94539 5832 ft 268 kts 269°
2026-05-05 10:04 -34.78752 138.92281 5530 ft 267 kts 269°
2026-05-05 10:04 -34.78798 138.90028 5242 ft 265 kts 269°
2026-05-05 10:04 -34.78842 138.87803 5021 ft 261 kts 269°
2026-05-05 10:04 -34.78886 138.85614 4809 ft 256 kts 269°
2026-05-05 10:05 -34.78928 138.83473 4640 ft 250 kts 269°
2026-05-05 10:05 -34.78968 138.81413 4503 ft 243 kts 269°
2026-05-05 10:05 -34.79006 138.79387 4356 ft 237 kts 268°
2026-05-05 10:05 -34.79045 138.77404 4197 ft 232 kts 268°
2026-05-05 10:06 -34.79455 138.75559 4027 ft 226 kts 238°
2026-05-05 10:06 -34.80371 138.74053 3914 ft 218 kts 231°
2026-05-05 10:06 -34.81319 138.72662 3817 ft 208 kts 230°
2026-05-05 10:06 -34.82220 138.71345 3675 ft 197 kts 230°
2026-05-05 10:07 -34.83153 138.70146 3403 ft 194 kts 226°
2026-05-05 10:07 -34.84053 138.68951 3133 ft 190 kts 229°
2026-05-05 10:07 -34.84903 138.67736 2869 ft 186 kts 230°
2026-05-05 10:07 -34.85725 138.66535 2622 ft 183 kts 230°
2026-05-05 10:08 -34.86528 138.65358 2374 ft 179 kts 230°
2026-05-05 10:08 -34.87316 138.64203 2139 ft 176 kts 230°
2026-05-05 10:08 -34.88093 138.63065 1899 ft 173 kts 230°
2026-05-05 10:08 -34.88850 138.61955 1669 ft 167 kts 230°
2026-05-05 10:09 -34.89572 138.60899 1464 ft 155 kts 230°
2026-05-05 10:09 -34.90261 138.59890 1227 ft 155 kts 230°
2026-05-05 10:09 -34.90942 138.58893 1016 ft 152 kts 231°
2026-05-05 10:09 -34.91614 138.57909 809 ft 150 kts 231°
2026-05-05 10:10 -34.92281 138.56932 621 ft 150 kts 231°
2026-05-05 10:10 -34.92948 138.55955 403 ft 150 kts 230°
2026-05-05 10:10 -34.93616 138.54979 211 ft 150 kts 230°
2026-05-05 10:10 -34.94284 138.54004 31 ft 147 kts 230°
2026-05-05 10:11 -34.94851 138.53178 22 ft 98 kts 230°
2026-05-05 10:11 -34.95167 138.52719 19 ft 45 kts 230°
2026-05-05 10:11 -34.95244 138.52581 20 ft 13 kts 269°
2026-05-05 10:11 -34.95191 138.52510 21 ft 11 kts 322°
2026-05-05 10:12 -34.95127 138.52456 19 ft 11 kts 337°
2026-05-05 10:12 -34.95054 138.52450 20 ft 11 kts
2026-05-05 10:12 -34.94991 138.52488 21 ft 10 kts 39°
2026-05-05 10:12 -34.94928 138.52550 19 ft 13 kts 38°
2026-05-05 10:13 -34.94850 138.52622 19 ft 14 kts 37°
2026-05-05 10:13 -34.94774 138.52693 21 ft 14 kts 38°
2026-05-05 10:13 -34.94699 138.52764 20 ft 13 kts 38°
2026-05-05 10:13 -34.94626 138.52833 20 ft 14 kts 38°
2026-05-05 10:14 -34.94551 138.52904 22 ft 13 kts 37°
2026-05-05 10:14 -34.94476 138.52973 22 ft 14 kts 39°
2026-05-05 10:14 -34.94441 138.53076 22 ft 13 kts 97°
2026-05-05 10:14 -34.94486 138.53174 24 ft 14 kts 123°
2026-05-05 10:15 -34.94520 138.53287 22 ft 15 kts 86°
2026-05-05 10:15 -34.94474 138.53389 23 ft 14 kts 50°
2026-05-05 10:15 -34.94409 138.53483 21 ft 16 kts 50°
2026-05-05 10:15 -34.94341 138.53583 23 ft 15 kts 50°
2026-05-05 10:16 -34.94282 138.53657 24 ft 11 kts 30°
2026-05-05 10:16 -34.94223 138.53640 24 ft 9 kts 337°
2026-05-05 10:16 -34.94167 138.53665 26 ft 10 kts 49°
2026-05-05 10:16 -34.94120 138.53734 24 ft 12 kts 49°
2026-05-05 10:17 -34.94065 138.53813 26 ft 12 kts 50°
2026-05-05 10:17 -34.94005 138.53882 27 ft 11 kts 13°
2026-05-05 10:17 -34.93946 138.53839 27 ft 9 kts 320°
2026-05-05 10:17 -34.93931 138.53824 28 ft 0 kts 320°